This is the latest recevied weather packets stored in our database for station/object W7TTE. If no packets are shown the sender has not sent any weather packets the latest 10 day(s).
| Time | Temp. | Humidity | Pressure | Rain* | Wind** | Luminosity | Snow |
|---|---|---|---|---|---|---|---|
| 1778102168 | 28.89° C | 21% | 1016.6 hPa | 0 mm | - | 686 W/m² | - |
| 1778101866 | 28.89° C | 20% | 1016.5 hPa | 0 mm | - | 698 W/m² | - |
| 1778101562 | 28.33° C | 20% | 1016.7 hPa | 0 mm | - | 708 W/m² | - |
| 1778101259 | 28.33° C | 20% | 1016.8 hPa | 0 mm | - | 717 W/m² | - |
| 1778100955 | 28.33° C | 20% | 1017 hPa | 0 mm | - | 724 W/m² | - |
| 1778100650 | 28.89° C | 20% | 1016.8 hPa | 0 mm | - | 732 W/m² | - |
| 1778100349 | 28.33° C | 21% | 1017 hPa | 0 mm | - | 741 W/m² | - |
| 1778100045 | 28.89° C | 20% | 1016.9 hPa | 0 mm | - | 746 W/m² | - |
| 1778099744 | 27.78° C | 21% | 1017.1 hPa | 0 mm | - | 751 W/m² | - |
| 1778099440 | 27.78° C | 21% | 1017.2 hPa | 0 mm | - | 760 W/m² | - |
| 1778099138 | 28.33° C | 21% | 1017.2 hPa | 0 mm | - | 766 W/m² | - |
| 1778098834 | 27.78° C | 21% | 1017.2 hPa | 0 mm | - | 772 W/m² | - |
| 1778098532 | 27.78° C | 22% | 1017.2 hPa | 0 mm | - | 778 W/m² | - |
| 1778098228 | 27.78° C | 22% | 1017.3 hPa | 0 mm | - | 783 W/m² | - |
| 1778097924 | 26.67° C | 22% | 1017.3 hPa | 0 mm | - | 784 W/m² | - |
| 1778097621 | 27.22° C | 23% | 1017.5 hPa | 0 mm | - | 785 W/m² | - |
| 1778097318 | 27.78° C | 22% | 1017.2 hPa | 0 mm | - | 788 W/m² | - |
| 1778097014 | 27.78° C | 22% | 1017.6 hPa | 0 mm | - | 790 W/m² | - |
| 1778096712 | 27.78° C | 22% | 1017.5 hPa | 0 mm | - | 793 W/m² | - |
| 1778096408 | 27.22° C | 22% | 1017.6 hPa | 0 mm | - | 795 W/m² | - |
| 1778096106 | 27.22° C | 23% | 1017.7 hPa | 0 mm | - | 797 W/m² | - |
| 1778095802 | 26.67° C | 23% | 1017.7 hPa | 0 mm | - | 799 W/m² | - |
| 1778095499 | 26.67° C | 24% | 1018 hPa | 0 mm | - | 799 W/m² | - |
| 1778095195 | 26.67° C | 23% | 1017.8 hPa | 0 mm | - | 799 W/m² | - |
| 1778094892 | 26.67° C | 24% | 1017.8 hPa | 0 mm | - | 798 W/m² | - |
* Rain latest hour (hover to see other rain measurements)
** Current wind speed in m/s (hover to see current wind gust speed)